[[{"header":{"parameterUnit":"m.s-1","parameterCategory":1,"la1":30.2991,"la2":30.254,"lo1":-89.0895,"lo2":-89.0444,"dy":0.0017,"dx":0.0017,"nx":28,"ny":28,"refTime":"2025-12-17T09:00:00:Z","depth":0,"parameterNumber":2,"parameterNumberName":"U-component_of_WINDS"},"data":[0,0,0,0,0,0,0,0,0,0,0,0,0,0,0,0,0,0,0,0,0,0,0,0,0,0,0,0,0,0,0,0,0,0,0,0,0,0,0,0,0,0,0,0,0,0,0,0,0,0,0,0,0,0,0,0,0,0,-4.0738,-4.0736,0,-4.0574,-4.0572,-4.057,-4.0351,-4.0347,-4.0344,-4.034,-4.0173,-4.0172,-4.0171,0,0,0,0,0,0,0,0,0,0,0,0,0,-4.0863,-4.0862,-4.0738,-4.0736,-4.0734,-4.0575,-4.0572,-4.057,-4.0352,-4.0347,-4.0343,-4.0339,-4.0174,-4.0172,-4.0171,0,0,0,0,0,0,0,0,0,0,0,0,0,-4.0765,-4.0861,-4.0739,-4.0606,-4.0592,-4.0575,-4.0572,-4.0569,-4.0353,-4.0347,-4.0342,-4.0336,-4.0174,-4.0172,-4.0171,-4.0271,0,0,-4.0166,-4.0165,0,0,0,0,0,0,0,0,-4.0771,-4.0761,-4.0627,-4.0615,-4.06,-4.0477,-4.0555,-4.0469,-4.0354,-4.0444,-4.034,-4.0334,-4.0279,-4.0268,-4.025,-4.0263,-4.0256,-4.0166,-4.0165,-4.0164,-4.0164,0,0,0,0,0,0,0,-4.0778,-4.0766,-4.0673,-4.0626,-4.0609,-4.0555,-4.0535,-4.0537,-4.0394,-4.0435,-4.0419,-4.0403,-4.027,-4.0252,-4.0244,-4.0253,-4.0166,-4.0165,-4.0164,-4.0163,-4.034,-4.0346,0,0,0,0,0,0,-4.0804,-4.0774,-4.0678,-4.0668,-4.0674,-4.0557,-4.0535,-4.0522,-4.0393,-4.0368,-4.0407,-4.0393,-4.0257,-4.0246,-4.0237,-4.0346,-4.0164,-4.0163,-4.0162,-4.0335,-4.0342,-4.0348,0,0,0,0,0,0,-4.0808,-4.0798,-4.0685,-4.0716,-4.0698,-4.0561,-4.0549,-4.0522,-4.0503,-4.0372,-4.0346,-4.0415,-4.0252,-4.024,-4.0264,-4.0337,-4.0162,-4.0161,-4.0328,-4.0337,-4.0345,-4.0564,0,0,0,0,0,0,-4.0812,-4.08,-4.0837,-4.0719,-4.0697,-4.0715,-4.0553,-4.0523,-4.0501,-4.048,-4.0372,-4.0349,-4.0247,-4.0268,-4.0263,-4.0331,-4.0159,-4.0321,-4.0332,-4.0342,-4.055,-4.0579,-4.0604,0,0,0,0,0,-4.0818,-4.0905,-4.084,-4.0829,-4.0739,-4.0719,-4.0707,-4.0588,-4.0508,-4.0543,-4.0459,-4.0352,-4.033,-4.0272,-4.0264,-4.0334,-4.0316,-4.0329,-4.0341,-4.0537,-4.0573,-4.0603,0,0,0,0,0,0,-4.1035,-4.0887,-4.0813,-4.0865,-4.0807,-4.0682,-4.0723,-4.0629,-4.0593,-4.0575,-4.0429,-4.0406,-4.0449,-4.0393,-4.0332,-4.0424,-4.0307,-4.0319,-4.0459,-4.0492,-4.0518,-4.0531,-4.0158,0,0,0,0,0,-4.1089,-4.1085,-4.0956,-4.1014,-4.0988,-4.0862,-4.0849,-4.0762,-4.0696,-4.067,-4.0587,-4.0528,-4.0506,-4.0496,-4.0469,-4.0541,-4.0514,-4.0585,-4.0612,-4.0635,-4.0647,-4.0681,-4.0711,-4.0389,-4.0389,-4.0389,0,0,-4.12,-4.1119,-4.1125,-4.1056,-4.1,-4.1,-4.0842,-4.0848,-4.0846,-4.067,-4.0688,-4.0627,-4.055,-4.0599,-4.0616,-4.0553,-4.073,-4.0651,-4.0671,-4.067,-4.0697,-4.0728,-4.0755,-4.0398,-4.0396,-4.0395,0,0,-4.1403,-4.1341,-4.1383,-4.1331,-4.1249,-4.1164,-4.1175,-4.1065,-4.1017,-4.1033,-4.0901,-4.0897,-4.0864,-4.0815,-4.0786,-4.0972,-4.0873,-4.0968,-4.111,-4.1144,-4.117,-4.1192,-4.1258,-4.1284,-4.098,-4.098,-4.0981,0,-4.1551,-4.1545,-4.1416,-4.143,-4.1404,-4.1245,-4.1287,-4.1243,-4.1157,-4.1143,-4.1074,-4.103,-4.0967,-4.1002,-4.1048,-4.103,-4.1037,-4.0979,-4.1177,-4.1197,-4.1215,-4.1277,-4.1303,-4.0993,-4.0991,-4.099,-4.0989,0,-4.1732,-4.173,-4.1773,-4.1695,-4.1673,-4.1702,-4.1578,-4.1571,-4.1488,-4.1411,-4.1429,-4.1348,-4.1303,-4.1305,-4.1223,-4.1329,-4.1293,-4.1203,-4.1082,-4.126,-4.1316,-4.1339,-4.101,-4.1006,-4.1002,-4.0999,0,0,-4.2065,-4.1916,-4.1935,-4.1897,-4.1796,-4.1792,-4.1813,-4.1769,-4.1767,-4.1714,-4.1728,-4.1705,-4.1621,-4.1588,-4.1499,-4.153,-4.1683,-4.1435,-4.1431,-4.1485,-4.1796,-4.1864,-4.1894,-4.1617,-4.1621,-4.1624,-4.1802,0,-4.2248,-4.2276,-4.2162,-4.222,-4.2216,-4.2066,-4.2085,-4.2025,-4.1955,-4.1941,-4.1862,-4.1849,-4.1739,-4.1718,-4.1742,-4.166,-4.1744,-4.1645,-4.1629,-4.163,-4.1653,-4.1923,-4.1995,-4.2167,-4.1823,-4.1827,-4.1829,0,-4.2465,-4.2424,-4.2482,-4.2379,-4.2373,-4.2392,-4.2342,-4.2332,-4.2262,-4.2208,-4.2173,-4.207,-4.2084,-4.197,-4.1987,-4.1923,-4.1909,-4.1868,-4.1872,-4.1866,-4.1741,-4.1924,-4.2219,-4.2246,-4.1862,-4.186,-4.1857,0,-4.2703,-4.2662,-4.2691,-4.2664,-4.2544,-4.2561,-4.2512,-4.2436,-4.2418,-4.2375,-4.2361,-4.2321,-4.2299,-4.2271,-4.216,-4.2087,-4.2192,-4.2067,-4.2147,-4.2151,-4.2176,-4.2176,-4.2473,-4.2168,-4.2168,-4.2167,-4.2167,0,-4.2919,-4.2961,-4.2797,-4.2815,-4.2857,-4.2726,-4.2771,-4.2707,-4.2642,-4.2645,-4.2513,-4.2519,-4.2373,-4.2363,-4.2276,-4.2305,-4.2296,-4.2253,-4.2229,-4.2265,-4.227,-4.2254,-4.2239,-4.2174,-4.2173,-4.2171,-4.217,0,-4.3192,-4.3084,-4.3106,-4.2991,-4.2963,-4.3,-4.2901,-4.2913,-4.2835,-4.2841,-4.2835,-4.2711,-4.2693,-4.258,-4.2535,-4.2477,-4.2537,-4.249,-4.2561,-4.2546,-4.2632,-4.2626,-4.2929,-4.2963,-4.2638,-4.2641,-4.2644,0,-4.3337,-4.3365,-4.3254,-4.3247,-4.3204,-4.3195,-4.3175,-4.3047,-4.3032,-4.2955,-4.2977,-4.2948,-4.2918,-4.2896,-4.2802,-4.2768,-4.2719,-4.2827,-4.2712,-4.2747,-4.272,-4.272,-4.2723,-4.2852,-4.2856,-4.286,-4.2862,0,-4.3606,-4.3552,-4.3528,-4.3488,-4.3468,-4.3429,-4.3383,-4.3385,-4.3243,-4.3233,-4.3213,-4.319,-4.3145,-4.3118,-4.3068,-4.3017,-4.2917,-4.29,-4.2916,-4.2953,-4.2993,-4.2973,-4.2628,-4.2893,-4.289,-4.2888,-4.2886,-4.2885,-4.3819,-4.3837,-4.3763,-4.3741,-4.3693,-4.3653,-4.3659,-4.3582,-4.3563,-4.3516,-4.3442,-4.3433,-4.3362,-4.3285,-4.3242,-4.3233,-4.3175,-4.3199,-4.3205,-4.3214,-4.3232,-4.2995,-4.3224,-4.3222,-4.3221,-4.3221,-4.322,0,-4.4081,-4.4026,-4.4008,-4.3947,-4.3932,-4.3839,-4.3783,-4.3776,-4.3769,-4.3712,-4.3686,-4.3663,-4.3637,-4.3542,-4.3506,-4.3517,-4.347,-4.3512,-4.3509,-4.35,-4.3286,-4.3275,-4.355,-4.355,-4.355,-4.355,-4.355,-4.355,-4.4216,-4.4243,-4.418,-4.4182,-4.4126,-4.4116,-4.4092,-4.4055,-4.4008,-4.3989,-4.3967,-4.3905,-4.3833,-4.3791,-4.3763,-4.3735,-4.3729,-4.3786,-4.3744,-4.3546,-4.3514,-4.3484,-4.3473,-4.3785,-4.3786,-4.3958,-4.3959,-4.3961]},{"header":{"parameterUnit":"m.s-1","parameterCategory":1,"la1":30.2991,"la2":30.254,"lo1":-89.0895,"lo2":-89.0444,"dy":0.0017,"dx":0.0017,"nx":28,"ny":28,"refTime":"2025-12-17T09:00:00:Z","depth":0,"parameterNumber":3,"parameterNumberName":"V-component_of_WINDS"},"data":[0,0,0,0,0,0,0,0,0,0,0,0,0,0,0,0,0,0,0,0,0,0,0,0,0,0,0,0,0,0,0,0,0,0,0,0,0,0,0,0,0,0,0,0,0,0,0,0,0,0,0,0,0,0,0,0,0,0,0.5799,0.58,0,0.588,0.5881,0.5882,0.6001,0.6003,0.6006,0.6008,0.6083,0.6083,0.6083,0,0,0,0,0,0,0,0,0,0,0,0,0,0.5742,0.5743,0.5799,0.58,0.5801,0.588,0.5881,0.5882,0.6001,0.6004,0.6006,0.6009,0.6083,0.6083,0.6083,0,0,0,0,0,0,0,0,0,0,0,0,0,0.5789,0.5743,0.5799,0.587,0.5877,0.588,0.5881,0.5882,0.6,0.6004,0.6007,0.601,0.6083,0.6083,0.6083,0.602,0,0,0.6083,0.6083,0,0,0,0,0,0,0,0,0.5786,0.5791,0.5858,0.5865,0.5873,0.5934,0.5889,0.5928,0.6,0.5953,0.6008,0.6011,0.603,0.6035,0.6043,0.6024,0.6027,0.6083,0.6083,0.6084,0.6084,0,0,0,0,0,0,0,0.5783,0.5788,0.5831,0.5859,0.5868,0.5896,0.5907,0.5897,0.5973,0.5958,0.5967,0.5975,0.6035,0.6043,0.6046,0.6028,0.6083,0.6083,0.6084,0.6084,0.5963,0.596,0,0,0,0,0,0,0.577,0.5785,0.5828,0.5833,0.5837,0.5895,0.5906,0.5911,0.5973,0.5986,0.5972,0.598,0.6041,0.6045,0.6049,0.5981,0.6084,0.6084,0.6084,0.5966,0.5963,0.5959,0,0,0,0,0,0,0.5768,0.5773,0.5825,0.5812,0.5821,0.5893,0.5897,0.5911,0.5919,0.5985,0.5998,0.5966,0.6044,0.6049,0.6028,0.5985,0.6084,0.6084,0.597,0.5965,0.5961,0.5842,0,0,0,0,0,0,0.5766,0.5772,0.5749,0.581,0.5821,0.5803,0.5894,0.591,0.592,0.5931,0.5983,0.5994,0.6047,0.6027,0.6027,0.5987,0.6084,0.5974,0.5968,0.5962,0.585,0.5834,0.582,0,0,0,0,0,0.5764,0.571,0.5747,0.5752,0.5795,0.5801,0.5806,0.587,0.5916,0.5893,0.5936,0.5992,0.599,0.6024,0.6025,0.5984,0.5977,0.597,0.5963,0.5857,0.5837,0.582,0,0,0,0,0,0,0.5639,0.572,0.5761,0.5727,0.5756,0.5821,0.5794,0.5846,0.5862,0.5871,0.5948,0.5958,0.5927,0.5954,0.599,0.5927,0.5992,0.5985,0.5911,0.5892,0.5878,0.5871,0.6084,0,0,0,0,0,0.5608,0.5608,0.5678,0.564,0.5653,0.5721,0.5726,0.5773,0.5806,0.5818,0.5859,0.5886,0.5892,0.5894,0.5903,0.5855,0.5868,0.5827,0.5812,0.5799,0.5792,0.577,0.5753,0.5935,0.5935,0.5935,0,0,0.5543,0.5587,0.5581,0.5616,0.5645,0.5642,0.573,0.5723,0.5721,0.5816,0.5799,0.583,0.5866,0.5832,0.5819,0.5853,0.5745,0.579,0.5779,0.5779,0.576,0.5743,0.5728,0.593,0.5931,0.5932,0,0,0.5422,0.5456,0.5429,0.5457,0.55,0.5546,0.554,0.5597,0.5623,0.5608,0.568,0.5678,0.5685,0.5709,0.5722,0.5614,0.5666,0.5614,0.5534,0.5512,0.5497,0.5485,0.5446,0.5432,0.5606,0.5606,0.5606,0,0.5335,0.5335,0.5408,0.5397,0.5411,0.55,0.5473,0.5496,0.5538,0.5544,0.5583,0.5597,0.5627,0.56,0.5574,0.5581,0.5576,0.5608,0.5494,0.5482,0.5472,0.5436,0.5421,0.56,0.56,0.5601,0.5602,0,0.5226,0.5225,0.5198,0.5241,0.5251,0.5232,0.5301,0.5302,0.5349,0.539,0.5374,0.5415,0.5434,0.5431,0.5475,0.5411,0.5431,0.548,0.5547,0.5446,0.5414,0.5401,0.559,0.5592,0.5594,0.5596,0,0,0.5027,0.5113,0.5102,0.5123,0.5179,0.5179,0.5164,0.5186,0.5185,0.5212,0.5201,0.5207,0.5255,0.5269,0.5317,0.5297,0.521,0.535,0.5352,0.5322,0.5142,0.5104,0.5087,0.5246,0.5244,0.5242,0.5139,0,0.4918,0.4899,0.4966,0.4929,0.493,0.5016,0.5003,0.5035,0.5074,0.5079,0.5121,0.5125,0.5186,0.5196,0.5181,0.5223,0.5174,0.5232,0.5235,0.5234,0.5222,0.507,0.5029,0.493,0.5126,0.5124,0.5123,0,0.4787,0.4811,0.4775,0.4835,0.4838,0.4825,0.4852,0.4856,0.4894,0.4924,0.4941,0.4998,0.4987,0.5052,0.5037,0.5074,0.508,0.5101,0.5099,0.5101,0.5171,0.5067,0.49,0.4884,0.5104,0.5105,0.5106,0,0.4646,0.4668,0.4651,0.4666,0.4735,0.4725,0.4753,0.4795,0.4804,0.4827,0.4834,0.4853,0.4863,0.4877,0.4937,0.4979,0.4915,0.4984,0.4938,0.4936,0.4919,0.4919,0.475,0.4923,0.4924,0.4924,0.4924,0,0.4516,0.4491,0.4589,0.4578,0.4552,0.4629,0.4601,0.4637,0.4674,0.467,0.4745,0.474,0.4821,0.4824,0.4871,0.4851,0.4855,0.4878,0.4891,0.4871,0.4868,0.4875,0.4883,0.492,0.4921,0.4922,0.4922,0,0.4353,0.4418,0.4405,0.4473,0.4489,0.4467,0.4525,0.4517,0.4562,0.4557,0.456,0.463,0.4638,0.47,0.4721,0.4753,0.4715,0.4741,0.4703,0.4711,0.4661,0.4665,0.4489,0.447,0.4656,0.4654,0.4652,0,0.4266,0.425,0.4317,0.4322,0.4347,0.4353,0.4364,0.4439,0.4447,0.4491,0.4477,0.4492,0.4508,0.4517,0.4568,0.4585,0.4612,0.4549,0.4614,0.4596,0.4611,0.4611,0.4609,0.4535,0.4532,0.453,0.4529,0,0.4105,0.4139,0.4153,0.4179,0.4191,0.4214,0.4242,0.4241,0.4324,0.4329,0.434,0.4352,0.4376,0.439,0.4416,0.4443,0.4499,0.4508,0.4498,0.4478,0.4456,0.4467,0.4664,0.4511,0.4513,0.4514,0.4515,0.4516,0.3978,0.3968,0.4014,0.4028,0.4058,0.4082,0.4079,0.4125,0.4136,0.4163,0.4206,0.4211,0.4251,0.4293,0.4316,0.4319,0.4352,0.4337,0.4334,0.4329,0.4319,0.4456,0.4324,0.4325,0.4325,0.4326,0.4326,0,0.382,0.3855,0.3868,0.3906,0.3917,0.3972,0.4006,0.4011,0.4016,0.4049,0.4065,0.4077,0.4092,0.4145,0.4165,0.4157,0.4184,0.416,0.4161,0.4166,0.4288,0.4295,0.4139,0.4139,0.4139,0.4139,0.4139,0.4139,0.374,0.3726,0.3765,0.3767,0.3802,0.381,0.3824,0.3847,0.3875,0.3887,0.39,0.3937,0.3978,0.4002,0.4017,0.4032,0.4036,0.4003,0.4027,0.4139,0.4157,0.4174,0.4181,0.4003,0.4003,0.3905,0.3904,0.3903]}]]